FW4559 Weather Reports


time (UTC)temp
C
wind
direction
speed
KPH
gust
KPH
rain 1hr
cm
rain 24hr
cm
rain mn
cm
humidity
%
barometer
mb
20260902194005 32 212 0.0 1.6 0.00 0.00 0.00 48 1017.5
20260902193504 32 114 0.0 4.8 0.00 0.00 0.00 49 1017.6
20260902193003 32 118 1.6 6.4 0.00 0.00 0.00 49 1017.6
20260902192503 32 196 1.6 6.4 0.00 0.00 0.00 46 1017.6
20260902192006 33 187 0.0 1.6 0.00 0.00 0.00 45 1017.7
20260902191501 33 238 0.0 1.6 0.00 0.00 0.00 44 1017.7
20260902191100 33 240 0.0 4.8 0.00 0.00 0.00 45 1017.9
20260902190558 32 165 0.0 4.8 0.00 0.00 0.00 49 1017.9
20260902190057 32 129 0.0 8.0 0.00 0.00 0.00 51 1017.8
20260902185555 32 203 1.6 8.0 0.00 0.00 0.00 48 1018.0
20260902185056 32 160 0.0 3.2 0.00 0.00 0.00 51 1018.1
20260902184557 31 201 0.0 3.2 0.00 0.00 0.00 48 1018.2
20260902184057 31 265 0.0 3.2 0.00 0.00 0.00 50 1018.2
20260902183553 31 347 0.0 6.4 0.00 0.00 0.00 53 1018.2
20260902183053 31 32 1.6 6.4 0.00 0.00 0.00 48 1018.2
20260902182554 31 219 0.0 4.8 0.00 0.00 0.00 51 1018.2
20260902182052 31 17 0.0 6.4 0.00 0.00 0.00 49 1018.3
20260902181555 31 238 0.0 6.4 0.00 0.00 0.00 47 1018.2
20260902181051 32 343 0.0 4.8 0.00 0.00 0.00 46 1018.3
20260902180550 32 165 0.0 4.8 0.00 0.00 0.00 49 1018.2
20260902180049 32 139 0.0 4.8 0.00 0.00 0.00 51 1018.2
20260902175549 31 225 0.0 4.8 0.00 0.00 0.00 52 1018.3
20260902175049 31 217 0.0 4.8 0.00 0.00 0.00 49 1018.4
20260902174548 31 224 0.0 6.4 0.00 0.00 0.00 50 1018.4
20260902174045 31 221 3.2 6.4 0.00 0.00 0.00 49 1018.6
20260902173545 31 212 0.0 6.4 0.00 0.00 0.00 52 1018.7
20260902173047 30 228 0.0 11.3 0.00 0.00 0.00 53 1018.7
20260902172544 30 153 4.8 11.3 0.00 0.00 0.00 49 1018.8
20260902172044 31 200 1.6 8.0 0.00 0.00 0.00 50 1018.8
20260902171559 30 115 0.0 4.8 0.00 0.00 0.00 51 1018.8
20260902171043 31 98 1.6 4.8 0.00 0.00 0.00 47 1019.0
20260902170542 31 162 0.0 3.2 0.00 0.00 0.00 49 1019.1
20260902170042 30 122 0.0 3.2 0.00 0.00 0.00 52 1019.2
20260902165542 29 98 0.0 4.8 0.00 0.00 0.00 56 1019.2
20260902165042 28 98 0.0 8.0 0.00 0.00 0.00 56 1019.2
20260902164542 28 14 3.2 8.0 0.00 0.00 0.00 55 1019.2
20260902164045 29 13 1.6 4.8 0.00 0.00 0.00 56 1019.3
20260902163540 29 51 0.0 4.8 0.00 0.00 0.00 55 1019.3
20260902163040 29 120 0.0 4.8 0.00 0.00 0.00 54 1019.3
20260902162539 29 84 0.0 4.8 0.00 0.00 0.00 54 1019.3
20260902162039 30 356 0.0 4.8 0.00 0.00 0.00 53 1019.3
20260902161540 30 20 1.6 4.8 0.00 0.00 0.00 50 1019.4
20260902161038 31 113 0.0 3.2 0.00 0.00 0.00 49 1019.4
20260902160538 31 134 0.0 0.0 0.00 0.00 0.00 52 1019.4
20260902160047 30 134 0.0 1.6 0.00 0.00 0.00 52 1019.4
20260902155537 30 149 0.0 1.6 0.00 0.00 0.00 54 1019.5
20260902155040 28 112 0.0 3.2 0.00 0.00 0.00 53 1019.4
20260902154536 28 86 0.0 3.2 0.00 0.00 0.00 54 1019.5
20260902154036 28 65 0.0 3.2 0.00 0.00 0.00 52 1019.5
20260902153539 28 90 0.0 3.2 0.00 0.00 0.00 55 1019.5
20260902153036 28 136 0.0 3.2 0.00 0.00 0.00 50 1019.5
20260902152536 30 95 0.0 3.2 0.00 0.00 0.00 52 1019.5
20260902152037 31 158 0.0 3.2 0.00 0.00 0.00 50 1019.5
20260902151534 31 158 0.0 0.0 0.00 0.00 0.00 55 1019.4
20260902151036 30 158 0.0 1.6 0.00 0.00 0.00 55 1019.4
20260902150531 30 158 0.0 1.6 0.00 0.00 0.00 56 1019.3
20260902150031 30 158 0.0 0.0 0.00 0.00 0.00 57 1019.3
20260902145530 30 176 0.0 0.0 0.00 0.00 0.00 56 1019.3
20260902145031 30 176 0.0 0.0 0.00 0.00 0.00 59 1019.4
20260902144528 30 176 0.0 0.0 0.00 0.00 0.00 60 1019.3
20260902144026 29 167 0.0 3.2 0.00 0.00 0.00 60 1019.4
20260902143525 28 167 0.0 3.2 0.00 0.00 0.00 64 1019.4
20260902143023 28 198 0.0 0.0 0.00 0.00 0.00 68 1019.3
20260902142522 28 198 0.0 1.6 0.00 0.00 0.00 65 1019.3
20260902142022 28 231 0.0 1.6 0.00 0.00 0.00 68 1019.2
20260902141521 28 169 0.0 0.0 0.00 0.00 0.00 70 1019.2
20260902141020 27 169 0.0 1.6 0.00 0.00 0.00 73 1019.3
20260902140520 27 169 0.0 1.6 0.00 0.00 0.00 72 1019.2
20260902140027 27 204 0.0 0.0 0.00 0.00 0.00 74 1019.3
20260902135516 26 204 0.0 0.0 0.00 0.00 0.00 74 1019.3
20260902135017 26 204 0.0 0.0 0.00 0.00 0.00 75 1019.4
20260902134515 26 204 0.0 0.0 0.00 0.00 0.00 76 1019.4
20260902134013 26 204 0.0 0.0 0.00 0.00 0.00 78 1019.4
20260902133514 25 204 0.0 0.0 0.00 0.00 0.00 80 1019.5
20260902133009 25 204 0.0 0.0 0.00 0.00 0.00 82 1019.5
20260902132511 24 204 0.0 0.0 0.00 0.00 0.00 85 1019.6
20260902132007 23 204 0.0 0.0 0.00 0.00 0.00 87 1019.7
20260902131505 23 204 0.0 0.0 0.00 0.00 0.00 90 1019.7
20260902131005 22 204 0.0 0.0 0.00 0.00 0.00 92 1019.7
20260902130503 22 204 0.0 0.0 0.00 0.00 0.00 95 1019.7
20260902130002 21 204 0.0 0.0 0.00 0.00 0.00 96 1019.8
20260902125501 21 204 0.0 0.0 0.00 0.00 0.00 95 1019.9
20260902125100 21 204 0.0 0.0 0.00 0.00 0.00 96 1019.8
20260902124559 20 204 0.0 0.0 0.00 0.00 0.00 96 1019.8
20260902124056 20 204 0.0 0.0 0.00 0.00 0.00 96 1019.8
20260902123556 19 204 0.0 0.0 0.00 0.00 0.00 96 1019.9
20260902123107 18 204 0.0 0.0 0.00 0.00 0.00 96 1019.9
20260902122557 17 204 0.0 0.0 0.00 0.00 0.00 96 1019.8
20260902122053 17 204 0.0 0.0 0.00 0.00 0.00 96 1019.8
20260902121554 17 204 0.0 0.0 0.00 0.00 0.00 96 1019.8
20260902121054 17 204 0.0 0.0 0.00 0.00 0.00 96 1019.8
20260902120553 17 204 0.0 0.0 0.00 0.00 0.00 96 1019.8
20260902120054 16 204 0.0 0.0 0.00 0.00 0.00 96 1019.7
20260902115552 16 204 0.0 0.0 0.00 0.00 0.00 96 1019.7
20260902115053 16 204 0.0 0.0 0.00 0.00 0.00 96 1019.6
20260902114554 16 204 0.0 0.0 0.00 0.00 0.00 96 1019.6
20260902114051 16 204 0.0 0.0 0.00 0.00 0.00 96 1019.6
20260902113550 16 204 0.0 0.0 0.00 0.00 0.00 96 1019.6
20260902113050 16 204 0.0 0.0 0.00 0.00 0.00 96 1019.6
20260902112550 16 204 0.0 0.0 0.00 0.00 0.00 96 1019.4
20260902112050 16 204 0.0 0.0 0.00 0.00 0.00 96 1019.4
20260902111551 16 204 0.0 0.0 0.00 0.00 0.00 96 1019.4
20260902111047 16 204 0.0 0.0 0.00 0.00 0.00 96 1019.3
20260902110546 16 204 0.0 0.0 0.00 0.00 0.00 96 1019.3
20260902110059 16 204 0.0 0.0 0.00 0.00 0.00 96 1019.3
20260902105545 16 204 0.0 0.0 0.00 0.00 0.00 96 1019.2
20260902105045 16 204 0.0 0.0 0.00 0.00 0.00 96 1019.1
20260902104545 16 204 0.0 0.0 0.00 0.00 0.00 96 1019.1
20260902104044 16 204 0.0 0.0 0.00 0.00 0.00 96 1019.1
20260902103544 16 204 0.0 0.0 0.00 0.00 0.00 96 1019.1
20260902103044 16 204 0.0 0.0 0.00 0.00 0.00 96 1019.1
20260902102547 16 204 0.0 0.0 0.00 0.00 0.00 96 1019.2
20260902102043 16 204 0.0 0.0 0.00 0.00 0.00 96 1019.2
20260902101542 16 204 0.0 0.0 0.00 0.00 0.00 96 1019.2
20260902101041 16 204 0.0 0.0 0.00 0.00 0.00 96 1019.1
20260902100546 16 204 0.0 0.0 0.00 0.00 0.00 96 1019.1
20260902100040 16 204 0.0 0.0 0.00 0.00 0.00 96 1019.1
20260902095546 16 204 0.0 0.0 0.00 0.00 0.00 96 1019.1
20260902095039 16 204 0.0 0.0 0.00 0.00 0.00 96 1019.1
20260902094544 16 204 0.0 0.0 0.00 0.00 0.00 96 1019.0
20260902094039 16 204 0.0 0.0 0.00 0.00 0.00 96 1018.9
20260902093539 16 204 0.0 0.0 0.00 0.00 0.00 96 1018.9
20260902093042 16 204 0.0 0.0 0.00 0.00 0.00 96 1019.0
20260902092540 16 204 0.0 0.0 0.00 0.00 0.00 96 1018.9
20260902092042 16 204 0.0 0.0 0.00 0.00 0.00 96 1018.9
20260902091539 17 204 0.0 0.0 0.00 0.00 0.00 96 1018.9
20260902091038 17 204 0.0 0.0 0.00 0.00 0.00 96 1018.7
20260902090538 17 204 0.0 0.0 0.00 0.00 0.00 96 1018.8
20260902090139 17 204 0.0 0.0 0.00 0.00 0.00 96 1018.9
20260902085536 17 204 0.0 0.0 0.00 0.03 0.00 96 1018.9
20260902085041 16 204 0.0 0.0 0.00 0.03 0.00 96 1018.9
20260902084542 16 204 0.0 0.0 0.00 0.03 0.00 96 1018.9
20260902084035 16 204 0.0 0.0 0.00 0.03 0.00 96 1018.8
20260902083538 16 204 0.0 0.0 0.00 0.03 0.00 96 1018.9
20260902083035 17 204 0.0 0.0 0.00 0.03 0.00 96 1018.9
20260902082535 17 204 0.0 0.0 0.00 0.03 0.00 96 1018.9
20260902082035 17 204 0.0 0.0 0.00 0.03 0.00 96 1018.8
20260902081536 17 204 0.0 0.0 0.00 0.03 0.00 96 1018.8
20260902081034 17 204 0.0 0.0 0.00 0.03 0.00 96 1018.9
20260902080533 17 204 0.0 0.0 0.00 0.03 0.00 96 1018.9
20260902080037 17 204 0.0 0.0 0.00 0.03 0.00 96 1018.8
20260902075537 17 204 0.0 0.0 0.00 0.03 0.00 96 1018.8
20260902075032 17 204 0.0 0.0 0.00 0.03 0.00 96 1018.8
20260902074532 17 204 0.0 0.0 0.00 0.03 0.00 96 1018.9
20260902074032 17 204 0.0 0.0 0.00 0.03 0.00 96 1018.7
20260902073532 17 204 0.0 0.0 0.00 0.03 0.00 96 1018.6
20260902073034 17 204 0.0 0.0 0.00 0.03 0.00 96 1018.5
20260902072531 17 204 0.0 0.0 0.00 0.03 0.00 96 1018.6
20260902072031 17 204 0.0 0.0 0.00 0.03 0.00 96 1018.6
20260902071536 17 204 0.0 0.0 0.00 0.03 0.00 96 1018.6
20260902071033 17 204 0.0 0.0 0.00 0.03 0.00 96 1018.7
20260902070528 17 204 0.0 0.0 0.00 0.03 0.00 96 1018.7
20260902070028 17 204 0.0 0.0 0.00 0.03 0.00 96 1018.7
20260902065529 17 204 0.0 0.0 0.00 0.03 0.00 96 1018.6
20260902065030 17 204 0.0 0.0 0.00 0.03 0.00 96 1018.7
20260902064527 17 204 0.0 0.0 0.00 0.03 0.00 96 1018.7
20260902064027 17 204 0.0 0.0 0.00 0.03 0.00 96 1018.6
20260902063527 17 204 0.0 0.0 0.00 0.03 0.00 96 1018.6
20260902063033 17 204 0.0 0.0 0.00 0.03 0.00 96 1018.6
20260902062527 17 204 0.0 0.0 0.00 0.03 0.00 96 1018.7
20260902062026 17 204 0.0 0.0 0.00 0.03 0.00 96 1018.6
20260902061542 17 204 0.0 0.0 0.00 0.03 0.00 96 1018.7
20260902061026 17 204 0.0 0.0 0.00 0.03 0.00 96 1018.8
20260902060525 17 204 0.0 0.0 0.00 0.03 0.00 96 1018.8
20260902060033 17 204 0.0 0.0 0.00 0.03 0.00 96 1018.7
20260902055524 17 204 0.0 0.0 0.00 0.03 0.00 96 1018.8
20260902055024 17 204 0.0 0.0 0.00 0.03 0.00 96 1018.7
20260902054539 17 204 0.0 0.0 0.00 0.03 0.00 96 1018.7
20260902054023 17 204 0.0 0.0 0.00 0.03 0.00 96 1018.6
20260902053523 17 204 0.0 0.0 0.00 0.03 0.00 96 1018.5
20260902053023 17 204 0.0 0.0 0.00 0.03 0.00 96 1018.7
20260902052521 18 204 0.0 0.0 0.00 0.03 0.00 96 1018.7
20260902052022 18 204 0.0 0.0 0.00 0.03 0.00 96 1018.6
20260902051521 18 204 0.0 0.0 0.00 0.03 0.00 96 1018.5
20260902051019 18 204 0.0 0.0 0.00 0.03 0.00 96 1018.6
20260902050519 18 204 0.0 0.0 0.00 0.03 0.00 96 1018.6
20260902050019 18 204 0.0 0.0 0.00 0.03 0.00 95 1018.6
20260902045518 18 204 0.0 0.0 0.00 0.03 0.00 95 1018.5
20260902045019 18 204 0.0 0.0 0.00 0.03 0.00 95 1018.4
20260902044518 18 204 0.0 0.0 0.00 0.03 0.00 95 1018.6
20260902044017 18 204 0.0 0.0 0.00 0.03 0.00 95 1018.6
20260902043515 18 204 0.0 0.0 0.00 0.03 0.00 95 1018.6
20260902043017 18 204 0.0 0.0 0.00 0.03 0.00 95 1018.6
20260902042516 18 204 0.0 0.0 0.00 0.03 0.00 95 1018.7
20260902042015 18 204 0.0 0.0 0.00 0.03 0.00 95 1018.6
20260902041513 18 204 0.0 0.0 0.00 0.03 0.00 95 1018.6
20260902041014 18 204 0.0 0.0 0.00 0.03 0.00 95 1018.4
20260902040511 18 204 0.0 0.0 0.00 0.03 0.00 95 1018.6
20260902040010 18 204 0.0 0.0 0.00 0.03 0.00 95 1018.6
20260902035510 18 204 0.0 0.0 0.00 0.03 0.03 95 1018.5
20260902035014 18 204 0.0 0.0 0.00 0.03 0.03 95 1018.6
20260902034510 18 204 0.0 0.0 0.00 0.03 0.03 95 1018.5
20260902034010 18 204 0.0 0.0 0.00 0.03 0.03 95 1018.6
20260902033509 18 204 0.0 0.0 0.00 0.03 0.03 95 1018.5
20260902033012 18 204 0.0 0.0 0.00 0.03 0.03 95 1018.6
20260902032512 18 204 0.0 0.0 0.00 0.03 0.03 95 1018.5
20260902032009 18 108 0.0 0.0 0.00 0.03 0.03 95 1018.6
20260902031509 18 108 0.0 0.0 0.00 0.03 0.03 94 1018.6
20260902031008 19 108 0.0 0.0 0.00 0.03 0.03 94 1018.8
20260902030508 19 108 0.0 0.0 0.00 0.03 0.03 94 1018.7
20260902030008 19 108 0.0 0.0 0.00 0.03 0.03 94 1018.7
20260902025508 19 108 0.0 0.0 0.00 0.03 0.03 94 1018.7
20260902025008 19 108 0.0 0.0 0.00 0.03 0.03 94 1018.6
20260902024507 19 108 0.0 0.0 0.00 0.03 0.03 94 1018.7
20260902024009 19 108 0.0 0.0 0.00 0.03 0.03 93 1018.6
20260902023509 19 108 0.0 0.0 0.00 0.03 0.03 93 1018.6
20260902023007 20 108 0.0 0.0 0.00 0.03 0.03 93 1018.6
20260902022507 20 108 0.0 0.0 0.00 0.03 0.03 93 1018.5
20260902022006 20 108 0.0 0.0 0.00 0.03 0.03 93 1018.5
20260902021514 20 108 0.0 0.0 0.00 0.03 0.03 93 1018.4
20260902021005 20 108 0.0 0.0 0.00 0.03 0.03 93 1018.3
20260902020505 20 109 0.0 1.6 0.00 0.03 0.03 93 1018.2
20260902020003 20 108 0.0 1.6 0.00 0.03 0.03 93 1018.2
20260902015503 20 134 0.0 1.6 0.00 0.03 0.03 93 1018.3
20260902015003 20 109 0.0 1.6 0.00 0.03 0.03 92 1018.2
20260902014507 20 109 0.0 0.0 0.00 0.03 0.03 92 1018.1
20260902014003 20 109 0.0 0.0 0.00 0.03 0.03 92 1018.1
20260902013503 20 109 0.0 0.0 0.00 0.03 0.03 92 1018.0
20260902013003 20 109 0.0 0.0 0.00 0.03 0.03 92 1018.0
20260902012502 21 109 0.0 1.6 0.00 0.03 0.03 91 1017.9
20260902012002 21 109 0.0 1.6 0.00 0.03 0.03 91 1018.1
20260902011502 21 109 0.0 0.0 0.00 0.03 0.03 91 1018.2
20260902011001 21 5 0.0 0.0 0.00 0.03 0.03 90 1017.9
20260902010502 21 5 0.0 0.0 0.00 0.03 0.03 90 1017.9
20260902010001 21 6 0.0 0.0 0.00 0.03 0.03 90 1017.8
20260902005502 21 6 0.0 0.0 0.00 0.03 0.03 89 1017.7
20260902005001 21 5 0.0 0.0 0.00 0.03 0.03 89 1017.7
20260902004503 21 6 0.0 0.0 0.00 0.03 0.03 89 1017.6
20260902004100 22 6 0.0 0.0 0.00 0.03 0.03 88 1017.4
20260902003559 22 6 0.0 0.0 0.00 0.03 0.03 88 1017.3
20260902003100 22 6 0.0 0.0 0.00 0.03 0.03 87 1017.4
20260902002559 22 6 0.0 0.0 0.00 0.03 0.03 86 1017.4
20260902002059 22 6 0.0 0.0 0.00 0.03 0.03 85 1017.5
20260902001558 23 5 0.0 0.0 0.00 0.03 0.03 84 1017.6
20260902001102 23 6 0.0 0.0 0.00 0.03 0.03 83 1017.6
20260902000557 23 6 0.0 0.0 0.00 0.03 0.03 83 1017.6
20260902000057 23 5 0.0 0.0 0.00 0.03 0.03 81 1017.7
20260901235601 24 6 0.0 0.0 0.00 0.03 0.03 80 1017.7
20260901235057 25 6 0.0 0.0 0.00 0.03 0.03 79 1017.7
20260901234606 25 5 0.0 0.0 0.00 0.03 0.03 77 1017.7
20260901234057 25 6 0.0 0.0 0.00 0.03 0.03 77 1017.7
20260901233557 25 6 0.0 0.0 0.00 0.03 0.03 76 1017.8
20260901233103 25 6 0.0 0.0 0.00 0.03 0.03 75 1017.8
20260901232559 26 6 0.0 0.0 0.00 0.03 0.03 75 1017.9
20260901232056 26 6 0.0 1.6 0.00 0.03 0.03 73 1017.7
20260901231559 26 6 0.0 1.6 0.00 0.03 0.03 72 1017.7
20260901231055 26 5 0.0 3.2 0.00 0.03 0.03 69 1017.8
20260901230555 26 19 0.0 3.2 0.00 0.03 0.03 69 1017.9
20260901230057 26 335 0.0 3.2 0.00 0.03 0.03 69 1018.0
20260901225556 26 4 0.0 4.8 0.00 0.05 0.03 68 1017.9
20260901225055 26 346 0.0 6.4 0.00 0.05 0.03 68 1017.9
20260901224557 26 349 1.6 6.4 0.00 0.05 0.03 67 1017.9
20260901224055 26 18 0.0 4.8 0.00 0.05 0.03 68 1017.9
20260901223555 26 39 0.0 6.4 0.00 0.05 0.03 67 1017.8
20260901223055 26 349 1.6 8.0 0.00 0.05 0.03 66 1017.8
20260901222555 27 23 1.6 4.8 0.00 0.05 0.03 65 1017.8
20260901222054 27 19 0.0 8.0 0.00 0.05 0.03 66 1017.8
20260901221617 27 335 1.6 8.0 0.00 0.05 0.03 64 1017.7
20260901221054 27 15 1.6 6.4 0.00 0.05 0.03 63 1017.7
20260901220553 28 11 0.0 8.0 0.00 0.05 0.03 64 1017.7
20260901220100 28 18 1.6 8.0 0.00 0.05 0.03 61 1017.7
20260901215552 28 354 0.0 1.6 0.00 0.05 0.03 66 1017.7
20260901215057 27 354 0.0 9.7 0.00 0.05 0.03 65 1017.7
20260901214551 27 354 1.6 9.7 0.00 0.05 0.03 63 1017.8
20260901214050 27 347 0.0 11.3 0.00 0.05 0.03 62 1017.8
20260901213551 27 306 4.8 11.3 0.00 0.05 0.03 59 1017.8
20260901213107 27 350 1.6 8.0 0.00 0.05 0.03 59 1017.9
20260901212551 27 19 3.2 8.0 0.00 0.05 0.03 58 1017.8
20260901212050 27 9 0.0 8.0 0.00 0.05 0.03 58 1017.8
20260901211553 28 37 0.0 9.7 0.00 0.05 0.03 58 1017.9
20260901211049 28 20 1.6 6.4 0.00 0.05 0.03 58 1018.0
20260901210548 28 246 0.0 6.4 0.00 0.05 0.03 58 1018.0
20260901210048 28 5 1.6 14.5 0.00 0.05 0.03 59 1018.1
20260901205550 28 349 4.8 14.5 0.00 0.05 0.03 58 1018.2
20260901205049 28 22 3.2 11.3 0.00 0.05 0.03 55 1018.1
20260901204548 28 4 0.0 8.0 0.00 0.05 0.03 57 1018.1
20260901204051 28 347 0.0 6.4 0.00 0.05 0.03 59 1018.1
20260901203547 28 231 0.0 6.4 0.00 0.05 0.03 59 1018.2
20260901203058 28 350 0.0 6.4 0.00 0.05 0.03 59 1018.1
20260901202545 28 20 0.0 8.0 0.00 0.05 0.03 58 1018.0
20260901202044 28 327 1.6 8.0 0.00 0.05 0.03 56 1018.2
20260901201545 28 225 1.6 6.4 0.00 0.05 0.03 56 1018.2
20260901201044 28 341 0.0 8.0 0.00 0.05 0.03 58 1018.2
20260901200543 28 11 3.2 9.7 0.00 0.05 0.03 56 1018.3
20260901200051 28 356 0.0 9.7 0.00 0.05 0.03 56 1018.3
20260901195547 28 340 3.2 9.7 0.00 0.05 0.03 55 1018.3
20260901195042 28 26 0.0 6.4 0.00 0.05 0.03 57 1018.4
20260901194542 27 342 0.0 11.3 0.00 0.05 0.03 59 1018.4